EN

Hourly Weather Laczany

Today, 28 July, Wednesday

Time Temperature Precipitation Wind Pressure Humidity
00:00 +22°C° 0 mm 1 mps 744 mmHg 71%
01:00 +21°C° 0 mm 2 mps 744 mmHg 70%
02:00 +20°C° 0 mm 2 mps 744 mmHg 71%
03:00 +20°C° 0 mm 2 mps 744 mmHg 71%
04:00 +20°C° 0 mm 2 mps 743 mmHg 72%
05:00 +23°C° 0 mm 2 mps 744 mmHg 69%
06:00 +24°C° 0 mm 2 mps 744 mmHg 65%
07:00 +26°C° 0 mm 2 mps 744 mmHg 62%
08:00 +28°C° 0 mm 2 mps 743 mmHg 56%
09:00 +29°C° 0 mm 2 mps 743 mmHg 51%
10:00 +31°C° 0 mm 2 mps 743 mmHg 46%
11:00 +31°C° 0 mm 2 mps 743 mmHg 43%
12:00 +32°C° 0 mm 2 mps 742 mmHg 41%
13:00 +32°C° 0 mm 2 mps 742 mmHg 41%
14:00 +31°C° 0 mm 2 mps 742 mmHg 44%
15:00 +31°C° 0 mm 2 mps 742 mmHg 47%
16:00 +30°C° 0 mm 2 mps 742 mmHg 50%
17:00 +29°C° 0 mm 2 mps 741 mmHg 57%
18:00 +27°C° 0 mm 2 mps 741 mmHg 64%
19:00 +26°C° 0 mm 2 mps 741 mmHg 71%
20:00 +25°C° 0.2 mm 3 mps 741 mmHg 75%
21:00 +24°C° 0.2 mm 3 mps 741 mmHg 80%
22:00 +21°C° 0.2 mm 3 mps 741 mmHg 84%
23:00 +21°C° 3.5 mm 3 mps 741 mmHg 88%

Tomorrow, 29 July, Thursday

Time Temperature Precipitation Wind Pressure Humidity
00:00 +20°C° 3.5 mm 3 mps 742 mmHg 92%
01:00 +19°C° 3.5 mm 4 mps 742 mmHg 96%
02:00 +19°C° 0.1 mm 3 mps 742 mmHg 96%
03:00 +19°C° 0.1 mm 3 mps 742 mmHg 95%
04:00 +19°C° 0.1 mm 3 mps 742 mmHg 95%
05:00 +19°C° 0 mm 3 mps 742 mmHg 90%
06:00 +20°C° 0 mm 4 mps 743 mmHg 85%
07:00 +21°C° 0 mm 5 mps 743 mmHg 80%
08:00 +22°C° 0 mm 4 mps 743 mmHg 71%
09:00 +25°C° 0 mm 4 mps 743 mmHg 62%
10:00 +26°C° 0 mm 4 mps 743 mmHg 54%
11:00 +27°C° 0 mm 4 mps 743 mmHg 50%
12:00 +28°C° 0 mm 4 mps 743 mmHg 47%
13:00 +29°C° 0 mm 4 mps 743 mmHg 44%
14:00 +28°C° 0 mm 4 mps 743 mmHg 48%
15:00 +27°C° 0 mm 3 mps 743 mmHg 53%
16:00 +26°C° 0 mm 3 mps 743 mmHg 57%
17:00 +25°C° 0 mm 2 mps 743 mmHg 61%
18:00 +24°C° 0 mm 2 mps 743 mmHg 64%
19:00 +23°C° 0 mm 1 mps 742 mmHg 68%
20:00 +21°C° 0 mm 2 mps 743 mmHg 68%
21:00 +20°C° 0 mm 2 mps 743 mmHg 68%
22:00 +19°C° 0 mm 2 mps 743 mmHg 69%
23:00 +19°C° 0 mm 2 mps 743 mmHg 69%

Day after tomorrow, 30 July, Friday

Time Temperature Precipitation Wind Pressure Humidity
00:00 +19°C° 0 mm 1 mps 743 mmHg 69%
01:00 +19°C° 0 mm 1 mps 743 mmHg 69%
02:00 +18°C° 0 mm 1 mps 743 mmHg 70%
03:00 +18°C° 0 mm 1 mps 743 mmHg 71%
04:00 +16°C° 0 mm 2 mps 743 mmHg 71%
05:00 +18°C° 0 mm 2 mps 743 mmHg 68%
06:00 +20°C° 0 mm 2 mps 743 mmHg 64%
07:00 +21°C° 0 mm 3 mps 743 mmHg 60%
08:00 +24°C° 0 mm 3 mps 742 mmHg 54%
09:00 +26°C° 0 mm 4 mps 742 mmHg 49%
10:00 +28°C° 0 mm 4 mps 742 mmHg 43%
11:00 +28°C° 0 mm 5 mps 742 mmHg 41%
12:00 +29°C° 0 mm 5 mps 742 mmHg 38%
13:00 +30°C° 0 mm 6 mps 741 mmHg 36%
14:00 +30°C° 0 mm 5 mps 741 mmHg 36%
15:00 +30°C° 0 mm 5 mps 741 mmHg 37%
16:00 +30°C° 0 mm 5 mps 741 mmHg 37%
17:00 +28°C° 0 mm 4 mps 740 mmHg 45%
18:00 +26°C° 0 mm 3 mps 740 mmHg 52%
19:00 +24°C° 0 mm 2 mps 740 mmHg 60%
20:00 +23°C° 0 mm 1 mps 740 mmHg 61%
21:00 +22°C° 0 mm 1 mps 740 mmHg 62%
22:00 +21°C° 0 mm 1 mps 741 mmHg 62%
23:00 +21°C° 0 mm 1 mps 741 mmHg 63%

31 July, Saturday

Time Temperature Precipitation Wind Pressure Humidity
00:00 +20°C° 0 mm 1 mps 740 mmHg 64%
01:00 +20°C° 0 mm 1 mps 740 mmHg 65%
02:00 +19°C° 0 mm 2 mps 740 mmHg 66%
03:00 +19°C° 0 mm 2 mps 740 mmHg 67%
04:00 +18°C° 0 mm 2 mps 740 mmHg 68%
05:00 +20°C° 0 mm 2 mps 740 mmHg 66%
06:00 +23°C° 0 mm 2 mps 740 mmHg 65%
07:00 +25°C° 0 mm 2 mps 740 mmHg 63%
08:00 +26°C° 0.1 mm 3 mps 740 mmHg 63%
09:00 +27°C° 0.1 mm 4 mps 740 mmHg 63%
10:00 +27°C° 0.1 mm 5 mps 740 mmHg 62%
11:00 +26°C° 0.5 mm 5 mps 740 mmHg 69%
12:00 +23°C° 0.5 mm 4 mps 740 mmHg 75%
13:00 +21°C° 0.5 mm 3 mps 740 mmHg 82%
14:00 +22°C° 0.1 mm 4 mps 740 mmHg 79%
15:00 +23°C° 0.1 mm 4 mps 740 mmHg 76%
16:00 +25°C° 0.1 mm 4 mps 740 mmHg 73%
17:00 +23°C° 0.2 mm 4 mps 740 mmHg 77%
18:00 +22°C° 0.2 mm 3 mps 740 mmHg 81%
19:00 +21°C° 0.2 mm 3 mps 740 mmHg 84%
20:00 +20°C° 0 mm 2 mps 740 mmHg 84%
21:00 +20°C° 0 mm 2 mps 740 mmHg 83%
22:00 +19°C° 0 mm 2 mps 741 mmHg 82%
23:00 +18°C° 0 mm 2 mps 741 mmHg 81%

1 August, Sunday

Time Temperature Precipitation Wind Pressure Humidity
00:00 +18°C° 0 mm 2 mps 741 mmHg 81%
01:00 +17°C° 0 mm 2 mps 741 mmHg 80%
02:00 +17°C° 0 mm 2 mps 741 mmHg 80%
03:00 +16°C° 0 mm 1 mps 741 mmHg 80%
04:00 +16°C° 0 mm 1 mps 741 mmHg 80%
05:00 +18°C° 0 mm 1 mps 741 mmHg 74%
06:00 +20°C° 0 mm 1 mps 741 mmHg 68%
07:00 +20°C° 0 mm 0 mps 741 mmHg 62%
08:00 +21°C° 0 mm 0 mps 741 mmHg 57%
09:00 +24°C° 0 mm 1 mps 741 mmHg 53%
10:00 +25°C° 0 mm 1 mps 741 mmHg 49%
11:00 +25°C° 0.1 mm 1 mps 741 mmHg 53%
12:00 +24°C° 0.1 mm 2 mps 741 mmHg 57%
13:00 +24°C° 0.1 mm 2 mps 741 mmHg 62%
14:00 +23°C° 1.3 mm 2 mps 740 mmHg 67%
15:00 +23°C° 1.3 mm 2 mps 739 mmHg 73%
16:00 +21°C° 1.3 mm 3 mps 739 mmHg 79%
17:00 +20°C° 3.6 mm 3 mps 738 mmHg 85%
18:00 +19°C° 3.6 mm 2 mps 738 mmHg 91%
19:00 +18°C° 3.6 mm 2 mps 738 mmHg 96%
20:00 +18°C° 0.2 mm 2 mps 738 mmHg 96%
21:00 +18°C° 0.2 mm 2 mps 738 mmHg 97%
22:00 +17°C° 0.2 mm 2 mps 738 mmHg 97%
23:00 +17°C° 0.1 mm 2 mps 738 mmHg 97%

2 August, Monday

Time Temperature Precipitation Wind Pressure Humidity
00:00 +17°C° 0.1 mm 2 mps 738 mmHg 97%
01:00 +17°C° 0.1 mm 3 mps 737 mmHg 97%
02:00 +15°C° 1.5 mm 4 mps 738 mmHg 96%
03:00 +15°C° 1.5 mm 5 mps 738 mmHg 96%
04:00 +14°C° 1.5 mm 6 mps 739 mmHg 96%
05:00 +14°C° 0.9 mm 6 mps 739 mmHg 95%
06:00 +14°C° 0.9 mm 5 mps 739 mmHg 94%
07:00 +14°C° 0.9 mm 5 mps 740 mmHg 94%
08:00 +16°C° 0.2 mm 5 mps 740 mmHg 86%
09:00 +19°C° 0.2 mm 6 mps 740 mmHg 77%
10:00 +21°C° 0.2 mm 6 mps 741 mmHg 69%
11:00 +21°C° 0.3 mm 6 mps 741 mmHg 65%
12:00 +22°C° 0.3 mm 6 mps 741 mmHg 62%
13:00 +23°C° 0.3 mm 6 mps 741 mmHg 58%
14:00 +22°C° 0.2 mm 6 mps 741 mmHg 61%
15:00 +22°C° 0.2 mm 6 mps 741 mmHg 64%
16:00 +21°C° 0.2 mm 6 mps 742 mmHg 67%
17:00 +20°C° 0.1 mm 5 mps 742 mmHg 70%
18:00 +19°C° 0.1 mm 4 mps 742 mmHg 73%
19:00 +18°C° 0.1 mm 3 mps 742 mmHg 76%
20:00 +17°C° 0 mm 3 mps 742 mmHg 77%
21:00 +17°C° 0 mm 3 mps 742 mmHg 77%
22:00 +16°C° 0 mm 3 mps 743 mmHg 78%
23:00 +16°C° 0 mm 3 mps 743 mmHg 80%
Show more